Weather History for Brooksville, FL

Change the Weather History Date:

Wednesday, August 21, 2013

  Actual Average Record
Temperature  
Mean Temperature 81 °F -  
Max Temperature 93 °F 88 °F 96 °F (2014)
Min Temperature 71 °F 69 °F 70 °F (2001)
Cooling Degree Days 16    
Growing Degree Days 31 (Base 50)    
Moisture  
Dew Point 73 °F    
Average Humidity 91    
Maximum Humidity 100    
Minimum Humidity 57    
Precipitation  
Precipitation 1.36 in - - ()
Sea Level Pressure  
Sea Level Pressure 30.09 in    
Wind  
Wind Speed 7 mph (ENE)    
Max Wind Speed 26 mph    
Max Gust Speed 37 mph    
Visibility 8 miles    
Events Fog , Rain    
Averages and records for this station are not official NWS values.
T = Trace of Precipitation, MM = Missing Value Source: NWS Daily Summary

Daily Weather History Graph

Daily Weather History Graph

Search for Another Location

Airport:

Trip Planner

Search our weather history database for the weather conditions in past years. The results will help you decide how hot, cold, wet, or windy it might be!

Date:

Astronomy

Aug. 21, 2013 Rise Set
Actual Time 7:02 AM EDT 8:02 PM EDT
Civil Twilight 6:38 AM EDT 8:27 PM EDT
Nautical Twilight 6:09 AM EDT 8:55 PM EDT
Astronomical Twilight 5:39 AM EDT 9:25 PM EDT
Moon 8:21 PM EDT (8/21) 7:33 AM EDT (8/21)
Length of Visible Light 13h 48m
Length of Day
13h 00m
Full, 100% of the Moon is Illuminated
Aug 21
Full
Aug 28
Last Quarter
Sep 5
New
Sep 12
First Quarter
Sep 19
Full

Hourly Weather History & Observations

Time (EDT) Temp. Heat Index Dew Point Humidity Pressure Visibility Wind Dir Wind Speed Gust Speed Precip Events Conditions
12:53 AM 75.0 °F - 73.0 °F 94% 30.11 in 10.0 mi NE 4.6 mph - N/A   Clear
1:53 AM 73.9 °F - 72.0 °F 93% 30.10 in 10.0 mi ENE 5.8 mph - N/A   Clear
2:53 AM 73.9 °F - 72.0 °F 93% 30.09 in 10.0 mi East 4.6 mph - N/A   Clear
3:53 AM 73.9 °F - 72.0 °F 93% 30.07 in 10.0 mi Calm Calm - N/A   Clear
4:53 AM 73.9 °F - 73.0 °F 97% 30.08 in 10.0 mi Calm Calm - N/A   Clear
5:53 AM 73.9 °F - 73.0 °F 97% 30.08 in 10.0 mi Calm Calm - N/A   Clear
6:53 AM 73.9 °F - 73.0 °F 97% 30.10 in 10.0 mi Calm Calm - N/A   Clear
7:00 AM 73.4 °F - 73.4 °F 100% 30.10 in 10.0 mi Calm Calm - N/A   Scattered Clouds
7:10 AM 73.4 °F - 73.4 °F 100% 30.10 in 8.0 mi Calm Calm - N/A   Mostly Cloudy
7:25 AM 73.4 °F - 73.4 °F 100% 30.11 in 2.0 mi ENE 3.5 mph - N/A   Overcast
7:36 AM 73.4 °F - 73.4 °F 100% 30.11 in 8.0 mi NE 4.6 mph - N/A   Overcast
7:53 AM 75.0 °F - 73.9 °F 96% 30.10 in 10.0 mi NE 4.6 mph - N/A   Mostly Cloudy
8:01 AM 75.2 °F - 75.2 °F 100% 30.11 in 10.0 mi NE 3.5 mph - N/A   Scattered Clouds
8:53 AM 79.0 °F - 75.0 °F 88% 30.11 in 10.0 mi ENE 5.8 mph - N/A   Clear
9:53 AM 82.9 °F 90.8 °F 75.9 °F 79% 30.12 in 10.0 mi East 8.1 mph - N/A   Clear
10:53 AM 86.0 °F 95.1 °F 75.0 °F 70% 30.13 in 10.0 mi ENE 11.5 mph - N/A   Partly Cloudy
11:53 AM 89.1 °F 100.2 °F 75.9 °F 65% 30.12 in 10.0 mi East 8.1 mph - N/A   Unknown
12:53 PM 88.0 °F 97.5 °F 75.0 °F 65% 30.10 in 10.0 mi East 9.2 mph - N/A   Partly Cloudy
1:53 PM 91.9 °F 103.9 °F 75.9 °F 59% 30.07 in 10.0 mi NE 8.1 mph - N/A   Partly Cloudy
2:53 PM 91.0 °F 100.4 °F 73.9 °F 57% 30.06 in 10.0 mi NE 4.6 mph - N/A   Mostly Cloudy
3:53 PM 78.1 °F - 75.0 °F 90% 30.06 in 2.0 mi ENE 24.2 mph 36.8 mph 0.07 in Rain Rain
4:02 PM 73.4 °F - 71.6 °F 94% 30.05 in 0.2 mi NE 26.5 mph 36.8 mph 0.63 in Fog , Rain Heavy Rain
4:14 PM 73.4 °F - 73.4 °F 100% 30.08 in 1.0 mi NNE 16.1 mph 27.6 mph 0.89 in Rain Rain
4:19 PM 73.4 °F - 71.6 °F 94% 30.08 in 3.0 mi NNE 16.1 mph - 0.89 in Rain Light Rain
4:31 PM 73.4 °F - 71.6 °F 94% 30.07 in 10.0 mi NNE 17.3 mph 26.5 mph 0.90 in Rain Light Rain
4:53 PM 75.0 °F - 73.0 °F 94% 30.09 in 10.0 mi NE 13.8 mph - 0.95 in   Mostly Cloudy
5:05 PM 75.2 °F - 73.4 °F 94% 30.12 in 2.5 mi ESE 18.4 mph 28.8 mph 0.05 in Rain Light Rain
5:08 PM 73.4 °F - 73.4 °F 100% 30.12 in 1.2 mi ESE 21.9 mph 34.5 mph 0.13 in Rain Heavy Rain
5:12 PM 73.4 °F - 71.6 °F 94% 30.10 in 0.8 mi East 18.4 mph 34.5 mph 0.20 in Rain Heavy Rain
5:17 PM 71.6 °F - 71.6 °F 100% 30.09 in 1.0 mi ENE 17.3 mph 27.6 mph 0.28 in Rain Heavy Rain
5:24 PM 71.6 °F - 69.8 °F 94% 30.08 in 2.0 mi NE 12.7 mph 20.7 mph 0.32 in Rain Heavy Rain
5:27 PM 71.6 °F - 69.8 °F 94% 30.07 in 3.0 mi NE 9.2 mph - 0.33 in Rain Light Rain
5:53 PM 73.0 °F - 70.0 °F 90% 30.09 in 10.0 mi NE 8.1 mph - 0.33 in Rain Light Rain
6:53 PM 73.9 °F - 71.1 °F 91% 30.10 in 10.0 mi Calm Calm - 0.00 in Rain Light Rain
7:53 PM 75.0 °F - 72.0 °F 90% 30.08 in 10.0 mi East 4.6 mph - 0.01 in   Clear
8:53 PM 75.0 °F - 72.0 °F 90% 30.07 in 9.0 mi East 5.8 mph - N/A   Partly Cloudy
9:53 PM 73.9 °F - 73.0 °F 97% 30.08 in 10.0 mi ENE 4.6 mph - N/A   Clear
10:53 PM 73.9 °F - 73.0 °F 97% 30.10 in 10.0 mi East 3.5 mph - N/A   Clear
11:53 PM 73.9 °F - 73.9 °F 100% 30.10 in 10.0 mi East 5.8 mph - N/A   Clear